{"data":{"norad_id":48272,"epoch":"2026-05-25T04:58:34.188960Z","epoch_age_seconds":50342,"freshness":"FRESH","line1":"1 48272U 21034E   26145.20734015  .00003537  00000+0  25306-3 0  9999","line2":"2 48272  97.5327 203.0315 0008172  34.8579 325.3181 15.05042999276389","mean_motion":15.05042999,"eccentricity":0.0008172,"inclination_deg":97.5327,"raan_deg":203.0315,"arg_perigee_deg":34.8579,"mean_anomaly_deg":325.3181,"bstar":0.00025306,"rev_number":27638,"period_min":95.67832951994,"perigee_km":545.71089903594,"apogee_km":557.03649131614,"semimajor_km":6929.510695176,"source":"CELESTRAK","updated_at":"2026-05-25T13:37:56.744238Z"}}